Location: Bailleul
(50.3375°N, 2.8513°E)
Time: 09:46:25
(UTC+00:00)

Cosmos 2016 Rocket - Pass Details

Date: 16 June 2021
Orbit: 947 x 1000 km, 83.0° (Epoch: 01 August)

Event Time Altitude Azimuth Distance (km) Brightness Sun altitude
Rises 22:02:06 0° 348° (NNW) 3,633 8.8 -12.5°
Reaches altitude 10° 22:04:37 10° 345° (NNW) 2,682 7.8 -12.7°
Maximum altitude 22:10:38 61° 267° (W) 1,068 4.3 -13.1°
Enters shadow 22:16:00 13° 189° (S) 2,442 5.6 -13.4°
